TimeEST,TemperatureF,Dew PointF,Humidity,Sea Level PressureIn,VisibilityMPH,Wind Direction,Wind SpeedMPH,Gust SpeedMPH,PrecipitationIn,Events,Conditions,WindDirDegrees,DateUTC
12:20 AM,55.4,50.0,82,30.10,10.0,South,9.2,-,N/A,,Clear,190,2012-12-04 05:20:00
12:39 AM,55.4,50.0,82,30.10,10.0,South,8.1,-,N/A,,Clear,180,2012-12-04 05:39:00
12:59 AM,55.4,50.0,82,30.10,10.0,South,6.9,-,N/A,,Clear,190,2012-12-04 05:59:00
1:20 AM,55.4,50.0,82,30.09,10.0,South,10.4,-,N/A,,Scattered Clouds,190,2012-12-04 06:20:00
1:39 AM,57.2,50.0,77,30.09,10.0,South,12.7,17.3,N/A,,Mostly Cloudy,190,2012-12-04 06:39:00
1:59 AM,57.2,50.0,77,30.08,10.0,SSW,15.0,19.6,N/A,,Mostly Cloudy,200,2012-12-04 06:59:00
2:20 AM,59.0,50.0,72,30.09,10.0,SSW,12.7,18.4,N/A,,Mostly Cloudy,200,2012-12-04 07:20:00
2:39 AM,59.0,50.0,72,30.10,10.0,SSW,13.8,17.3,N/A,,Overcast,200,2012-12-04 07:39:00
2:59 AM,57.2,50.0,77,30.10,10.0,SSW,12.7,17.3,N/A,,Overcast,200,2012-12-04 07:59:00
3:20 AM,57.2,50.0,77,30.09,10.0,SSW,12.7,21.9,N/A,,Overcast,200,2012-12-04 08:20:00
3:59 AM,55.4,48.2,77,30.08,10.0,SSW,12.7,18.4,N/A,,Mostly Cloudy,200,2012-12-04 08:59:00
4:19 AM,55.4,48.2,77,30.07,10.0,SSW,12.7,18.4,N/A,,Mostly Cloudy,200,2012-12-04 09:19:00
4:39 AM,55.4,48.2,77,30.07,10.0,SSW,13.8,17.3,N/A,,Scattered Clouds,200,2012-12-04 09:39:00
4:59 AM,55.4,46.4,72,30.07,10.0,SSW,13.8,18.4,N/A,,Clear,200,2012-12-04 09:59:00
5:19 AM,55.4,46.4,72,30.07,10.0,South,11.5,-,N/A,,Scattered Clouds,190,2012-12-04 10:19:00
5:39 AM,55.4,48.2,77,30.07,10.0,SSW,10.4,-,N/A,,Overcast,200,2012-12-04 10:39:00
5:59 AM,55.4,48.2,77,30.07,10.0,SSW,11.5,-,N/A,,Overcast,200,2012-12-04 10:59:00
6:19 AM,55.4,48.2,77,30.07,10.0,SSW,11.5,-,N/A,,Overcast,200,2012-12-04 11:19:00
6:39 AM,55.4,48.2,77,30.07,10.0,South,9.2,-,N/A,,Overcast,190,2012-12-04 11:39:00
7:00 AM,55.4,48.2,77,30.07,10.0,South,8.1,-,N/A,,Overcast,190,2012-12-04 12:00:00
7:19 AM,55.4,48.2,77,30.07,10.0,South,9.2,-,N/A,,Overcast,190,2012-12-04 12:19:00
7:39 AM,55.4,48.2,77,30.07,10.0,South,9.2,-,N/A,,Overcast,190,2012-12-04 12:39:00
8:00 AM,55.4,48.2,77,30.07,10.0,SSW,10.4,-,N/A,,Overcast,200,2012-12-04 13:00:00
8:19 AM,55.4,48.2,77,30.07,10.0,South,8.1,16.1,N/A,,Overcast,190,2012-12-04 13:19:00
8:39 AM,55.4,48.2,77,30.07,10.0,South,9.2,-,N/A,,Overcast,190,2012-12-04 13:39:00
9:00 AM,55.4,48.2,77,30.07,10.0,South,9.2,-,N/A,,Overcast,190,2012-12-04 14:00:00
9:19 AM,55.4,50.0,82,30.07,10.0,South,10.4,-,N/A,,Overcast,190,2012-12-04 14:19:00
9:39 AM,57.2,50.0,77,30.07,10.0,South,12.7,18.4,N/A,,Overcast,190,2012-12-04 14:39:00
10:00 AM,59.0,50.0,72,30.07,10.0,SSW,13.8,17.3,N/A,,Overcast,200,2012-12-04 15:00:00
10:19 AM,59.0,50.0,72,30.07,10.0,SSW,12.7,-,N/A,,Overcast,200,2012-12-04 15:19:00
10:39 AM,59.0,50.0,72,30.07,10.0,SSW,13.8,17.3,N/A,,Overcast,200,2012-12-04 15:39:00
11:00 AM,59.0,51.8,77,30.06,10.0,SSW,12.7,-,N/A,,Mostly Cloudy,200,2012-12-04 16:00:00
11:19 AM,60.8,51.8,72,30.06,10.0,SSW,13.8,21.9,N/A,,Mostly Cloudy,200,2012-12-04 16:19:00
11:39 AM,60.8,51.8,72,30.05,10.0,SSW,16.1,24.2,N/A,,Mostly Cloudy,210,2012-12-04 16:39:00
12:00 PM,60.8,51.8,72,30.03,10.0,SSW,11.5,17.3,N/A,,Overcast,210,2012-12-04 17:00:00
12:19 PM,60.8,51.8,72,30.02,10.0,SSW,13.8,-,N/A,,Overcast,200,2012-12-04 17:19:00
12:40 PM,60.8,53.6,77,30.02,10.0,SSW,12.7,-,N/A,,Overcast,200,2012-12-04 17:40:00
1:19 PM,60.8,53.6,77,30.00,10.0,SSW,13.8,20.7,N/A,,Overcast,210,2012-12-04 18:19:00
1:40 PM,60.8,53.6,77,29.99,10.0,SSW,16.1,21.9,N/A,,Overcast,210,2012-12-04 18:40:00
1:59 PM,60.8,53.6,77,29.99,10.0,SSW,15.0,-,N/A,,Overcast,210,2012-12-04 18:59:00
2:19 PM,60.8,53.6,77,29.98,10.0,SW,13.8,20.7,N/A,,Overcast,220,2012-12-04 19:19:00
2:40 PM,60.8,55.4,82,29.98,7.0,SW,13.8,-,N/A,Rain,Rain,220,2012-12-04 19:40:00
2:59 PM,59.0,55.4,88,29.98,4.0,SSW,11.5,-,0.04,Rain,Heavy Rain,210,2012-12-04 19:59:00
3:19 PM,57.2,53.6,88,30.00,4.0,WNW,15.0,25.3,0.08,Rain,Heavy Rain,300,2012-12-04 20:19:00
3:40 PM,51.8,50.0,94,30.01,5.0,NW,13.8,18.4,0.15,Rain,Light Rain,320,2012-12-04 20:40:00
3:59 PM,50.0,48.2,94,30.01,10.0,NW,12.7,18.4,0.15,,Drizzle,320,2012-12-04 20:59:00
4:19 PM,50.0,46.4,87,30.03,3.0,NW,9.2,16.1,0.04,Rain,Heavy Rain,310,2012-12-04 21:19:00
4:40 PM,46.4,44.6,93,30.04,5.0,NNW,12.7,21.9,0.09,Rain,Rain,330,2012-12-04 21:40:00
4:59 PM,44.6,42.8,93,30.06,10.0,NNW,13.8,23.0,0.10,Rain,Rain,330,2012-12-04 21:59:00
5:19 PM,44.6,42.8,93,30.10,5.0,WNW,10.4,17.3,0.04,Rain,Rain,300,2012-12-04 22:19:00
5:59 PM,42.8,41.0,93,30.10,10.0,NNW,8.1,-,0.06,Rain,Rain,340,2012-12-04 22:59:00
6:19 PM,42.8,41.0,93,30.12,10.0,NW,8.1,-,0.01,Rain,Rain,310,2012-12-04 23:19:00
6:40 PM,42.8,39.2,87,30.12,10.0,NW,9.2,-,0.02,Rain,Light Rain,320,2012-12-04 23:40:00
6:59 PM,42.8,41.0,93,30.12,10.0,NW,5.8,-,0.03,Rain,Rain,310,2012-12-04 23:59:00
7:20 PM,42.8,39.2,87,30.12,10.0,NW,4.6,-,N/A,,Light Drizzle,310,2012-12-05 00:20:00
7:39 PM,42.8,41.0,93,30.12,10.0,WNW,3.5,-,N/A,,Light Drizzle,300,2012-12-05 00:39:00
7:59 PM,42.8,41.0,93,30.12,10.0,WNW,3.5,-,N/A,,Overcast,290,2012-12-05 00:59:00
8:20 PM,42.8,41.0,93,30.13,10.0,West,4.6,-,N/A,,Overcast,280,2012-12-05 01:20:00
8:39 PM,42.8,41.0,93,30.14,10.0,West,3.5,-,N/A,,Mostly Cloudy,260,2012-12-05 01:39:00
8:59 PM,42.8,41.0,93,30.14,10.0,West,3.5,-,N/A,,Scattered Clouds,260,2012-12-05 01:59:00
9:20 PM,41.0,39.2,93,30.14,10.0,WSW,3.5,-,N/A,,Clear,250,2012-12-05 02:20:00
9:39 PM,41.0,39.2,93,30.15,10.0,Calm,Calm,-,N/A,,Clear,0,2012-12-05 02:39:00
9:59 PM,39.2,37.4,93,30.15,10.0,Calm,Calm,-,N/A,,Clear,0,2012-12-05 02:59:00
10:20 PM,37.4,35.6,93,30.16,10.0,Calm,Calm,-,N/A,,Clear,0,2012-12-05 03:20:00
10:39 PM,37.4,37.4,100,30.16,10.0,SSW,3.5,-,N/A,,Clear,210,2012-12-05 03:39:00
10:59 PM,39.2,37.4,93,30.16,10.0,SW,3.5,-,N/A,,Clear,220,2012-12-05 03:59:00
11:20 PM,37.4,37.4,100,30.17,10.0,Calm,Calm,-,N/A,,Clear,0,2012-12-05 04:20:00
11:39 PM,37.4,37.4,100,30.17,10.0,Calm,Calm,-,N/A,,Clear,0,2012-12-05 04:39:00
11:59 PM,37.4,37.4,100,30.17,10.0,Calm,Calm,-,N/A,,Clear,0,2012-12-05 04:59:00